Hourly Data Report for December 01, 2020

MUSKOKA
ONTARIO
Current Station Operator: NAVCAN

44°58'29.000" N
79°18'12.000" W
281.90 m
6115529
71532
YQA

Download Data

Hourly Data (December 2020)
Hourly Data Report for December 1, 2020
TIME
LST
Temp Definition
°C
Dew Point Definition
°C
Rel Hum Definition
%
Precip. Amount Definition
mm

Wind Dir Definition
10's deg

Wind Spd Definition
km/h
Visibility Definition
km
Stn Press Definition
kPa
Hmdx Definition


Wind Chill Definition


Weather Definition


00:00 -2.2 -3.6 90 LegendMM 35 21 16.1 96.60   -8 Snow
01:00 -2.5 -4.1 89 LegendMM 35 24 9.7 96.58   -9 Snow
02:00 -2.7 -4.4 88 LegendMM 35 17 16.1 96.57   -8 Snow
03:00 -2.9 -4.3 90 LegendMM 35 15 2.8 96.58   -8 Snow
04:00 -3.2 -4.5 91 LegendMM 35 18 2.0 96.56   -9 Snow
05:00 -3.3 -4.3 93 LegendMM 34 13 1.6 96.54   -8 Snow
06:00 -3.3 -4.1 94 LegendMM 34 18 1.6 96.52   -9 Snow
07:00 -3.2 -4.0 94 LegendMM 34 13 1.6 96.55   -8 Snow
08:00 -3.0 -4.0 93 LegendMM 34 18 2.4 96.52   -9 Snow
09:00 -2.6 -3.7 92 LegendMM 35 17 1.6 96.52   -8 Snow
10:00 -2.4 -3.4 93 LegendMM 36 13 1.6 96.53   -7 Snow
11:00 -2.3 -3.3 93 LegendMM 35 15 1.2 96.48   -7 Snow
12:00 -2.0 -3.1 92 LegendMM 35 15 2.0 96.45   -7 Snow
13:00 -1.9 -2.9 93 LegendMM 34 15 1.6 96.43   -7 Snow
14:00 -1.7 -3.0 91 LegendMM 34 18 6.4 96.40   -7 Snow
15:00 -1.4 -2.5 92 LegendMM 34 18 2.4 96.43   -7 Snow
16:00 -1.9 -2.7 94 LegendMM 35 15 0.2 96.51   -7 Heavy Snow
17:00 -2.2 -3.3 92 LegendMM 35 21 2.4 96.58   -8 Snow
18:00 -3.0 -4.4 90 LegendMM 34 26 3.2 96.64   -10 Snow
19:00 -3.8 -5.1 91 LegendMM 33 24 2.0 96.68   -11 Snow
20:00 -4.0 -5.4 90 LegendMM 33 30 2.0 96.73   -12 Snow
21:00 -3.8 -5.4 89 LegendMM 33 28 2.4 96.77   -11 Snow
22:00 -4.1 -5.7 89 LegendMM 33 22 14.5 96.80   -11 Snow
23:00 -3.7 -5.9 85 LegendMM 33 22 16.1 96.87   -10 LegendNANA

Notes on Data Quality.

Legend

  • E = Estimated
  • M = Missing
  • NA = Not Available*
  • [empty] = Indicates an unobserved value
Date modified: